Location: Newark
(33.6333°S, 78.8500°W)
Time: 19:53:26
(UTC+00:00)

Tiros 1 despin weight - Pass Details

Date: 27 September 2019
Orbit: 593 x 643 km, 48.2° (Epoch: 22 October)

Event Time Altitude Azimuth Distance (km) Brightness Sun altitude
Rises 05:13:27 0° 244° (WSW) 2,892 - -54.8°
Reaches altitude 10° 05:16:53 10° 217° (SW) 2,001 - -54.8°
Maximum altitude 05:19:13 14° 186° (S) 1,782 - -54.7°
Drops below altitude 10° 05:21:33 10° 156° (SSE) 2,019 - -54.7°
Sets 05:25:03 0° 129° (SE) 2,940 - -54.6°
